[[{"header":{"parameterUnit":"m.s-1","parameterCategory":1,"la1":30.2991,"la2":30.254,"lo1":-89.0895,"lo2":-89.0444,"dy":0.0017,"dx":0.0017,"nx":28,"ny":28,"refTime":"2025-03-25T03:00:00:Z","depth":0,"parameterNumber":2,"parameterNumberName":"U-component_of_WINDS"},"data":[0,0,0,0,0,0,0,0,0,0,0,0,0,0,0,0,0,0,0,0,0,0,0,0,0,0,0,0,0,0,0,0,0,0,0,0,0,0,0,0,0,0,0,0,0,0,0,0,0,0,0,0,0,0,0,0,0,0,-0.1644,-0.1643,0,-0.1577,-0.1576,-0.1576,-0.1495,-0.1493,-0.1492,-0.1491,-0.1424,-0.1423,-0.1423,0,0,0,0,0,0,0,0,0,0,0,0,0,-0.1704,-0.1704,-0.1644,-0.1643,-0.1642,-0.1577,-0.1576,-0.1576,-0.1495,-0.1493,-0.1492,-0.149,-0.1424,-0.1423,-0.1423,0,0,0,0,0,0,0,0,0,0,0,0,0,-0.1662,-0.1703,-0.1644,-0.1594,-0.1589,-0.1578,-0.1576,-0.1575,-0.1495,-0.1493,-0.1492,-0.149,-0.1424,-0.1423,-0.1422,-0.1455,0,0,-0.142,-0.1419,0,0,0,0,0,0,0,0,-0.1664,-0.166,-0.1603,-0.1598,-0.1592,-0.1542,-0.1573,-0.1535,-0.1496,-0.1531,-0.1491,-0.1489,-0.1465,-0.146,-0.1452,-0.1452,-0.1449,-0.142,-0.1419,-0.1419,-0.1418,0,0,0,0,0,0,0,-0.1667,-0.1662,-0.1618,-0.1602,-0.1595,-0.1576,-0.1568,-0.1565,-0.1509,-0.1528,-0.1522,-0.1515,-0.1462,-0.1453,-0.145,-0.1448,-0.142,-0.1419,-0.1418,-0.1418,-0.1472,-0.1474,0,0,0,0,0,0,-0.1678,-0.1665,-0.162,-0.1616,-0.1624,-0.1577,-0.1567,-0.156,-0.1509,-0.15,-0.1517,-0.1511,-0.1456,-0.1451,-0.1447,-0.1483,-0.1419,-0.1418,-0.1417,-0.147,-0.1473,-0.1475,0,0,0,0,0,0,-0.1679,-0.1674,-0.1622,-0.1639,-0.1631,-0.1578,-0.157,-0.156,-0.1551,-0.1501,-0.1491,-0.1518,-0.1454,-0.1449,-0.1454,-0.1479,-0.1417,-0.1416,-0.1468,-0.1471,-0.1474,-0.1554,0,0,0,0,0,0,-0.1681,-0.1675,-0.1686,-0.164,-0.163,-0.163,-0.1572,-0.156,-0.155,-0.1542,-0.1499,-0.1491,-0.1452,-0.1456,-0.1453,-0.1477,-0.1416,-0.1465,-0.1469,-0.1473,-0.1548,-0.1559,-0.1568,0,0,0,0,0,-0.1684,-0.1711,-0.1687,-0.1682,-0.1643,-0.1631,-0.1626,-0.1581,-0.1552,-0.1563,-0.1531,-0.1492,-0.1477,-0.1457,-0.1453,-0.1477,-0.1464,-0.1468,-0.1473,-0.1544,-0.1557,-0.1568,0,0,0,0,0,0,-0.1762,-0.1704,-0.1677,-0.169,-0.1666,-0.1617,-0.163,-0.1595,-0.1579,-0.1573,-0.1518,-0.1509,-0.1522,-0.15,-0.1478,-0.1507,-0.1465,-0.1469,-0.152,-0.1532,-0.1542,-0.1547,-0.1415,0,0,0,0,0,-0.1781,-0.1776,-0.1726,-0.1742,-0.1732,-0.1683,-0.1677,-0.1644,-0.1617,-0.1607,-0.1575,-0.1551,-0.1541,-0.1535,-0.1523,-0.1545,-0.1535,-0.156,-0.157,-0.1578,-0.1582,-0.1594,-0.1605,-0.149,-0.149,-0.149,0,0,-0.182,-0.1788,-0.1788,-0.1757,-0.1735,-0.1732,-0.1675,-0.1674,-0.1671,-0.1606,-0.161,-0.1586,-0.1555,-0.157,-0.1574,-0.1552,-0.1612,-0.1584,-0.1591,-0.159,-0.16,-0.1611,-0.1621,-0.1493,-0.1492,-0.1492,0,0,-0.1889,-0.1864,-0.1875,-0.1855,-0.1822,-0.179,-0.1793,-0.175,-0.1731,-0.1734,-0.1686,-0.1682,-0.1666,-0.1647,-0.1635,-0.17,-0.1663,-0.1697,-0.1748,-0.176,-0.1769,-0.1777,-0.1801,-0.1811,-0.1701,-0.1702,-0.1702,0,-0.1942,-0.1934,-0.1886,-0.1888,-0.1877,-0.1818,-0.1831,-0.1813,-0.1778,-0.1772,-0.1748,-0.1727,-0.1702,-0.1712,-0.1728,-0.172,-0.1723,-0.1702,-0.1772,-0.1779,-0.1786,-0.1808,-0.1817,-0.1706,-0.1706,-0.1705,-0.1705,0,-0.2001,-0.1997,-0.201,-0.1979,-0.1969,-0.1976,-0.193,-0.1926,-0.1895,-0.1866,-0.1871,-0.1839,-0.1821,-0.1821,-0.179,-0.1827,-0.1814,-0.1782,-0.1738,-0.1802,-0.1822,-0.183,-0.1712,-0.1711,-0.1709,-0.1708,0,0,-0.2116,-0.2059,-0.2065,-0.205,-0.2011,-0.2007,-0.2013,-0.1994,-0.1993,-0.1971,-0.1975,-0.1964,-0.1934,-0.1921,-0.1888,-0.1899,-0.1954,-0.1865,-0.1863,-0.1883,-0.1994,-0.2019,-0.203,-0.193,-0.1931,-0.1933,-0.1997,0,-0.2178,-0.2184,-0.2141,-0.2159,-0.2155,-0.2101,-0.2106,-0.2083,-0.2057,-0.2051,-0.2022,-0.2015,-0.1976,-0.1968,-0.1976,-0.1946,-0.1976,-0.194,-0.1934,-0.1935,-0.1944,-0.204,-0.2066,-0.2129,-0.2005,-0.2006,-0.2007,0,-0.2251,-0.2234,-0.2251,-0.2213,-0.221,-0.2215,-0.2196,-0.219,-0.2164,-0.2144,-0.2131,-0.2094,-0.2098,-0.2057,-0.2063,-0.204,-0.2035,-0.202,-0.2022,-0.2019,-0.1975,-0.2041,-0.2147,-0.2157,-0.2019,-0.2018,-0.2017,0,-0.2335,-0.2316,-0.2324,-0.2314,-0.2269,-0.2274,-0.2256,-0.2227,-0.222,-0.2204,-0.2198,-0.2183,-0.2175,-0.2165,-0.2125,-0.2099,-0.2136,-0.2091,-0.2121,-0.2122,-0.213,-0.2131,-0.2238,-0.2127,-0.2127,-0.2127,-0.2127,0,-0.2409,-0.2421,-0.2361,-0.2367,-0.238,-0.2332,-0.2347,-0.2323,-0.2299,-0.23,-0.2252,-0.2254,-0.2201,-0.2197,-0.2167,-0.2177,-0.2173,-0.2158,-0.215,-0.2163,-0.2165,-0.2159,-0.2154,-0.2129,-0.2129,-0.2128,-0.2128,0,-0.2504,-0.2464,-0.2469,-0.2427,-0.2417,-0.2429,-0.2393,-0.2396,-0.2368,-0.2369,-0.2367,-0.2323,-0.2316,-0.2275,-0.2259,-0.2239,-0.2261,-0.2244,-0.227,-0.2264,-0.2296,-0.2294,-0.2403,-0.2416,-0.2297,-0.2299,-0.23,0,-0.2553,-0.2562,-0.2521,-0.2518,-0.2502,-0.2497,-0.249,-0.2444,-0.2438,-0.241,-0.2418,-0.2407,-0.2396,-0.2389,-0.2356,-0.2344,-0.2326,-0.2366,-0.2324,-0.2338,-0.2328,-0.2328,-0.233,-0.2375,-0.2376,-0.2377,-0.2378,0,-0.2646,-0.2627,-0.2617,-0.2602,-0.2595,-0.258,-0.2563,-0.2563,-0.2513,-0.2509,-0.2502,-0.2494,-0.2478,-0.2469,-0.2452,-0.2434,-0.2399,-0.2392,-0.2398,-0.2411,-0.2426,-0.242,-0.2294,-0.2389,-0.2388,-0.2387,-0.2387,-0.2386,-0.2721,-0.2727,-0.2699,-0.2691,-0.2673,-0.2659,-0.2661,-0.2633,-0.2626,-0.261,-0.2583,-0.2581,-0.2556,-0.2529,-0.2515,-0.2513,-0.2492,-0.2501,-0.2503,-0.2506,-0.2513,-0.2427,-0.2509,-0.2509,-0.2508,-0.2508,-0.2508,0,-0.2812,-0.2792,-0.2785,-0.2763,-0.2757,-0.2724,-0.2704,-0.2702,-0.27,-0.268,-0.267,-0.2663,-0.2655,-0.2622,-0.261,-0.2615,-0.2599,-0.2614,-0.2613,-0.261,-0.2532,-0.2528,-0.2627,-0.2627,-0.2627,-0.2627,-0.2627,-0.2627,-0.2859,-0.2867,-0.2845,-0.2846,-0.2825,-0.2822,-0.2814,-0.2801,-0.2785,-0.2779,-0.2772,-0.275,-0.2726,-0.2713,-0.2704,-0.2695,-0.2693,-0.2714,-0.2699,-0.2627,-0.2615,-0.2604,-0.26,-0.2714,-0.2714,-0.2777,-0.2778,-0.2779]},{"header":{"parameterUnit":"m.s-1","parameterCategory":1,"la1":30.2991,"la2":30.254,"lo1":-89.0895,"lo2":-89.0444,"dy":0.0017,"dx":0.0017,"nx":28,"ny":28,"refTime":"2025-03-25T03:00:00:Z","depth":0,"parameterNumber":3,"parameterNumberName":"V-component_of_WINDS"},"data":[0,0,0,0,0,0,0,0,0,0,0,0,0,0,0,0,0,0,0,0,0,0,0,0,0,0,0,0,0,0,0,0,0,0,0,0,0,0,0,0,0,0,0,0,0,0,0,0,0,0,0,0,0,0,0,0,0,0,1.4541,1.4542,0,1.4568,1.4568,1.4569,1.4577,1.4577,1.4576,1.4576,1.4602,1.4602,1.4603,0,0,0,0,0,0,0,0,0,0,0,0,0,1.4495,1.4496,1.4541,1.4542,1.4542,1.4568,1.4569,1.4569,1.4577,1.4577,1.4576,1.4576,1.4601,1.4602,1.4603,0,0,0,0,0,0,0,0,0,0,0,0,0,1.4518,1.4496,1.4541,1.4549,1.455,1.4568,1.4569,1.4569,1.4577,1.4577,1.4576,1.4576,1.4601,1.4602,1.4603,1.4615,0,0,1.4607,1.4607,0,0,0,0,0,0,0,0,1.4516,1.4519,1.4548,1.4549,1.455,1.4569,1.4561,1.4584,1.4577,1.4567,1.4576,1.4576,1.4591,1.4593,1.4598,1.4616,1.4617,1.4607,1.4608,1.4608,1.4609,0,0,0,0,0,0,0,1.4515,1.4518,1.4552,1.4548,1.4549,1.4551,1.4554,1.4566,1.4579,1.4567,1.4568,1.4571,1.4591,1.4597,1.4599,1.4617,1.4607,1.4608,1.4609,1.4609,1.4645,1.4646,0,0,0,0,0,0,1.4512,1.4517,1.4551,1.4553,1.4532,1.4552,1.4555,1.4563,1.4579,1.4582,1.4571,1.4572,1.4595,1.4597,1.46,1.4614,1.4608,1.4609,1.461,1.4645,1.4646,1.4646,0,0,0,0,0,0,1.4511,1.4515,1.455,1.4535,1.454,1.4553,1.4561,1.4564,1.4569,1.4582,1.4585,1.4575,1.4595,1.4598,1.4611,1.4615,1.461,1.4611,1.4645,1.4645,1.4646,1.4643,0,0,0,0,0,0,1.451,1.4515,1.452,1.4535,1.454,1.4561,1.4562,1.4564,1.4572,1.4572,1.4586,1.4588,1.4595,1.4609,1.4612,1.4616,1.4612,1.4645,1.4645,1.4646,1.4642,1.4643,1.4643,0,0,0,0,0,1.4508,1.4517,1.452,1.4524,1.4547,1.4562,1.4565,1.4573,1.4572,1.4577,1.4585,1.4588,1.4614,1.461,1.4614,1.4619,1.4644,1.4645,1.4645,1.4642,1.4643,1.4643,0,0,0,0,0,0,1.4501,1.4519,1.4522,1.4537,1.4548,1.4563,1.4569,1.4573,1.4584,1.4584,1.4593,1.4596,1.4608,1.4615,1.461,1.463,1.4629,1.4631,1.4626,1.4626,1.4627,1.4624,1.4613,0,0,0,0,0,1.4501,1.4512,1.4528,1.4539,1.4544,1.4556,1.4563,1.4568,1.4579,1.4584,1.4593,1.4603,1.4614,1.462,1.4631,1.4644,1.4646,1.4648,1.4649,1.4649,1.465,1.4657,1.4658,1.4648,1.4648,1.4648,0,0,1.4501,1.4513,1.4519,1.4538,1.4547,1.4558,1.456,1.4571,1.4579,1.4585,1.4598,1.4605,1.4617,1.463,1.4636,1.4636,1.4653,1.465,1.465,1.4651,1.4658,1.4659,1.4659,1.4648,1.4648,1.4648,0,0,1.4508,1.4518,1.4528,1.4537,1.4551,1.4559,1.4562,1.4576,1.4582,1.4595,1.46,1.4609,1.4627,1.4636,1.4642,1.4652,1.4655,1.4655,1.4657,1.4664,1.4664,1.4665,1.4668,1.4669,1.4656,1.4656,1.4656,0,1.4506,1.4523,1.4533,1.4544,1.4552,1.4559,1.457,1.4578,1.4594,1.4599,1.4599,1.4622,1.463,1.4645,1.4647,1.4653,1.4655,1.4653,1.4664,1.4664,1.4665,1.4668,1.467,1.4656,1.4656,1.4656,1.4656,0,1.4521,1.4532,1.4539,1.4556,1.4564,1.4575,1.4585,1.4593,1.4598,1.4605,1.4618,1.4629,1.4642,1.4646,1.465,1.4661,1.4661,1.4662,1.4661,1.4666,1.4669,1.467,1.4656,1.4656,1.4656,1.4656,0,0,1.4523,1.4545,1.4547,1.4555,1.4571,1.458,1.459,1.4604,1.461,1.4621,1.463,1.4645,1.4646,1.4654,1.4659,1.4665,1.4672,1.4666,1.4666,1.4666,1.4684,1.4683,1.4684,1.4674,1.4674,1.4675,1.4683,0,1.4531,1.4551,1.456,1.4576,1.4587,1.4594,1.4604,1.4614,1.4621,1.4631,1.4639,1.465,1.4651,1.4655,1.4662,1.467,1.4676,1.4669,1.4682,1.4682,1.4678,1.4686,1.4685,1.4693,1.4685,1.4685,1.4685,0,1.4543,1.4555,1.4572,1.4587,1.4592,1.46,1.4613,1.4622,1.4634,1.4639,1.4648,1.4653,1.4664,1.4663,1.4678,1.4673,1.4679,1.4684,1.4684,1.4685,1.4684,1.4687,1.4695,1.4696,1.4687,1.4687,1.4687,0,1.4542,1.4562,1.4575,1.4582,1.4599,1.4605,1.4613,1.4625,1.4632,1.4643,1.4648,1.466,1.4666,1.4675,1.4683,1.4681,1.4697,1.4696,1.4701,1.4701,1.4704,1.4703,1.4712,1.4708,1.4708,1.4708,1.4708,0,1.455,1.456,1.4576,1.4583,1.4595,1.4605,1.4616,1.4624,1.4635,1.4644,1.465,1.4659,1.4669,1.4679,1.4685,1.4696,1.4699,1.4703,1.4705,1.4702,1.4702,1.4706,1.4705,1.4708,1.4708,1.4708,1.4708,0,1.4551,1.4562,1.4576,1.4592,1.4597,1.4604,1.4618,1.4625,1.4633,1.4645,1.4648,1.466,1.4672,1.4681,1.4696,1.47,1.4712,1.4714,1.4708,1.4709,1.4713,1.4712,1.4724,1.4726,1.4721,1.4721,1.4721,0,1.4555,1.4563,1.458,1.4587,1.4595,1.4606,1.4614,1.4624,1.4632,1.4646,1.4652,1.4664,1.4675,1.4693,1.4702,1.4713,1.4715,1.4719,1.4717,1.4715,1.4715,1.4714,1.4715,1.4719,1.4719,1.4719,1.4719,0,1.4561,1.4566,1.4578,1.4591,1.46,1.4611,1.4622,1.4627,1.4639,1.4647,1.466,1.4668,1.4683,1.4695,1.4708,1.4715,1.4719,1.472,1.4721,1.4719,1.4715,1.4717,1.4708,1.4719,1.4719,1.4719,1.4719,1.4719,1.4564,1.4571,1.4585,1.4597,1.4607,1.4617,1.4625,1.4634,1.4645,1.4659,1.4664,1.4676,1.4688,1.4705,1.4712,1.4722,1.4722,1.4724,1.4725,1.4725,1.4725,1.4714,1.4724,1.4724,1.4724,1.4724,1.4724,0,1.457,1.4579,1.459,1.4606,1.4615,1.4619,1.4632,1.4639,1.465,1.4661,1.4672,1.4686,1.4697,1.4708,1.472,1.4725,1.4728,1.4728,1.4728,1.4729,1.4724,1.4721,1.4726,1.4726,1.4726,1.4726,1.4726,1.4726,1.4574,1.4587,1.4594,1.4612,1.462,1.4633,1.464,1.4649,1.4658,1.4674,1.4684,1.4691,1.4701,1.4714,1.4725,1.4728,1.4732,1.4732,1.4735,1.473,1.4729,1.4729,1.4727,1.4733,1.4733,1.4739,1.4739,1.4739]}]]